Location: Moscow
(55.7500°N, 37.5830°E)
Time: 10:53:28
(UTC+03:00)

Explorer 7 - Pass Details

Date: 04 December 2021
Orbit: 483 x 674 km, 50.3° (Epoch: 19 January)

Event Time Altitude Azimuth Distance (km) Brightness Sun altitude
Rises 09:57:06 0° 266° (W) 2,701 10.1 6.3°
Reaches altitude 10° 09:59:31 10° 257° (WSW) 1,775 9.3 6.5°
Maximum altitude 10:03:07 33° 193° (SSW) 883 8.6 6.7°
Drops below altitude 10° 10:06:35 10° 129° (SE) 1,697 10.9 7.0°
Sets 10:08:51 0° 119° (ESE) 2,561 11.4 7.2°
